Precipitable_Water
1.09 1.08 1.03 0.96 0.90 0.91 0.94 0.96 0.98 0.98 0.95 0.93 0.92 0.93 0.93 0.91 0.89 0.84 0.80 0.89 0.65 0.49 0.50 0.54 0.54 0.44 0.45 0.44 0.37 0.48 0.48 0.49 0.48 0.39 0.39 0.39 0.38 0.40 0.40 0.42 0.40 0.39 0.37 0.35 0.36 0.32 0.27 0.49 0.50 0.40 0.47 0.54 0.55 0.53
1.06 1.09 1.10 1.02 0.97 0.93 0.90 0.94 0.94 0.96 0.97 0.96 0.95 0.95 0.96 0.96 0.95 0.91 0.73 0.91 0.86 0.59 0.53 0.70 0.68 0.69 0.63 0.60 0.52 0.54 0.50 0.49 0.54 0.47 0.47 0.47 0.42 0.45 0.43 0.35 0.49 0.39 0.44 0.39 0.40 0.38 0.50 0.53 0.52 0.56 0.58 0.54 0.53 0.56
1.01 1.07 1.09 1.10 1.06 1.01 0.97 0.91 0.92 0.94 0.95 0.95 0.94 0.95 0.96 0.97 0.97 0.93 0.83 0.87 0.78 0.60 0.57 0.56 0.57 0.75 0.85 0.83 0.84 0.56 0.60 0.66 0.62 0.68 0.58 0.54 0.45 0.52 0.41 0.43 0.48 0.54 0.56 0.46 0.47 0.50 0.49 0.55 0.58 0.60 0.61 0.57 0.63 0.64
0.98 1.03 1.06 1.10 1.08 1.05 1.01 0.95 0.91 0.89 0.90 0.92 0.92 0.92 0.93 0.96 0.96 0.95 0.83 0.89 0.80 0.69 0.49 0.49 0.77 0.70 0.83 0.84 0.81 0.81 0.75 0.79 0.75 0.71 0.61 0.57 0.50 0.62 0.49 0.52 0.50 0.54 0.56 0.53 0.47 0.53 0.53 0.54 0.56 0.62 0.65 0.69 0.64 0.60
0.93 0.99 1.02 1.06 1.09 1.07 1.03 1.00 0.94 0.91 0.90 0.90 0.90 0.90 0.91 0.93 0.95 0.94 0.94 0.96 0.97 0.74 0.54 0.56 0.70 0.76 0.80 0.82 0.78 0.81 0.78 0.72 0.70 0.63 0.60 0.54 0.61 0.58 0.58 0.55 0.49 0.56 0.47 0.45 0.42 0.52 0.51 0.51 0.63 0.70 0.62 0.58 0.56 0.51
0.86 0.93 0.96 1.01 1.05 1.08 1.08 1.07 1.03 0.99 0.97 0.95 0.95 0.95 0.95 0.96 0.97 0.88 0.68 0.89 0.96 0.93 0.70 0.53 0.75 0.70 0.75 0.79 0.76 0.74 0.74 0.74 0.74 0.66 0.60 0.62 0.67 0.60 0.47 0.41 0.51 0.57 0.58 0.64 0.54 0.57 0.61 0.61 0.65 0.63 0.58 0.53 0.46 0.44
0.79 0.84 0.91 0.93 0.95 1.00 1.04 1.05 1.07 1.07 1.07 1.05 1.03 1.01 1.02 1.03 1.00 0.80 0.70 0.81 0.94 0.98 0.71 0.56 0.55 0.69 0.73 0.73 0.72 0.72 0.77 0.73 0.70 0.64 0.59 0.58 0.59 0.63 0.50 0.39 0.47 0.55 0.62 0.59 0.60 0.60 0.54 0.57 0.52 0.50 0.43 0.40 0.38 0.37
0.72 0.73 0.79 0.84 0.88 0.90 0.93 0.98 1.03 1.06 1.07 1.08 1.08 1.08 1.07 1.06 1.03 0.87 0.96 1.02 1.03 0.86 0.77 0.55 0.53 0.59 0.73 0.60 0.58 0.71 0.64 0.67 0.66 0.61 0.60 0.53 0.54 0.53 0.41 0.44 0.51 0.56 0.56 0.54 0.52 0.51 0.48 0.49 0.43 0.39 0.39 0.37 0.34 0.33
0.70 0.70 0.69 0.70 0.74 0.78 0.81 0.86 0.93 0.97 1.01 1.04 1.05 1.04 0.98 0.91 0.81 0.84 1.02 1.06 1.03 0.84 0.61 0.56 0.47 0.44 0.70 0.62 0.64 0.63 0.63 0.49 0.59 0.50 0.48 0.48 0.43 0.38 0.44 0.49 0.49 0.47 0.42 0.40 0.42 0.44 0.43 0.40 0.38 0.32 0.29 0.29 0.29 0.29
0.67 0.71 0.71 0.69 0.65 0.67 0.70 0.72 0.70 0.76 0.87 0.96 0.92 0.80 0.67 0.79 0.97 0.96 0.85 0.73 0.72 0.71 0.67 0.53 0.61 0.51 0.63 0.60 0.55 0.52 0.53 0.46 0.36 0.41 0.51 0.42 0.37 0.48 0.49 0.44 0.41 0.39 0.39 0.40 0.37 0.37 0.35 0.30 0.33 0.32 0.30 0.29 0.29 0.28
0.67 0.67 0.70 0.68 0.67 0.70 0.72 0.72 0.75 0.74 0.69 0.60 0.61 0.63 0.80 0.92 0.78 0.68 0.55 0.52 0.54 0.50 0.56 0.56 0.57 0.51 0.60 0.44 0.44 0.51 0.43 0.43 0.33 0.35 0.36 0.32 0.31 0.37 0.42 0.41 0.41 0.41 0.40 0.38 0.36 0.34 0.36 0.34 0.31 0.28 0.27 0.27 0.29 0.30
0.65 0.67 0.68 0.67 0.68 0.69 0.67 0.67 0.69 0.65 0.62 0.61 0.60 0.66 0.65 0.55 0.48 0.40 0.39 0.44 0.40 0.35 0.44 0.41 0.45 0.49 0.52 0.58 0.48 0.48 0.39 0.38 0.27 0.39 0.33 0.27 0.35 0.39 0.39 0.39 0.41 0.42 0.40 0.38 0.37 0.35 0.35 0.35 0.34 0.31 0.29 0.26 0.27 0.27
0.63 0.66 0.67 0.67 0.67 0.69 0.67 0.65 0.67 0.66 0.64 0.60 0.54 0.49 0.46 0.45 0.34 0.31 0.27 0.32 0.34 0.41 0.44 0.44 0.42 0.49 0.50 0.50 0.43 0.40 0.32 0.30 0.39 0.30 0.26 0.29 0.34 0.36 0.35 0.35 0.33 0.33 0.34 0.32 0.30 0.30 0.30 0.31 0.32 0.30 0.27 0.27 0.28 0.28
0.62 0.65 0.67 0.66 0.67 0.67 0.65 0.65 0.66 0.62 0.54 0.40 0.37 0.30 0.31 0.30 0.33 0.34 0.35 0.36 0.43 0.46 0.45 0.45 0.43 0.42 0.44 0.39 0.38 0.29 0.30 0.31 0.23 0.20 0.19 0.27 0.30 0.29 0.28 0.28 0.29 0.28 0.28 0.26 0.24 0.24 0.25 0.25 0.26 0.27 0.28 0.28 0.28 0.28
0.61 0.65 0.67 0.66 0.65 0.65 0.64 0.64 0.61 0.56 0.45 0.34 0.32 0.25 0.29 0.34 0.37 0.38 0.41 0.41 0.45 0.48 0.45 0.42 0.40 0.39 0.34 0.31 0.30 0.27 0.24 0.21 0.21 0.19 0.24 0.28 0.29 0.29 0.29 0.29 0.28 0.26 0.24 0.22 0.23 0.23 0.22 0.23 0.23 0.23 0.24 0.25 0.28 0.31
0.65 0.64 0.60 0.65 0.64 0.63 0.61 0.60 0.56 0.50 0.41 0.35 0.31 0.26 0.30 0.30 0.32 0.36 0.38 0.39 0.47 0.45 0.43 0.38 0.31 0.27 0.26 0.27 0.23 0.20 0.19 0.15 0.18 0.24 0.27 0.28 0.28 0.29 0.26 0.25 0.24 0.24 0.24 0.22 0.22 0.23 0.24 0.23 0.24 0.25 0.26 0.28 0.30 0.33
0.62 0.54 0.62 0.61 0.59 0.59 0.58 0.53 0.48 0.40 0.34 0.29 0.26 0.32 0.30 0.29 0.28 0.29 0.32 0.33 0.40 0.33 0.25 0.27 0.21 0.20 0.23 0.20 0.18 0.21 0.17 0.20 0.24 0.23 0.25 0.27 0.26 0.24 0.23 0.23 0.22 0.23 0.22 0.23 0.24 0.24 0.24 0.26 0.28 0.28 0.27 0.29 0.31 0.33
0.53 0.58 0.62 0.62 0.58 0.55 0.52 0.48 0.39 0.34 0.28 0.28 0.25 0.26 0.31 0.32 0.30 0.30 0.32 0.35 0.34 0.30 0.27 0.23 0.23 0.17 0.15 0.12 0.13 0.17 0.20 0.21 0.20 0.20 0.21 0.21 0.21 0.21 0.22 0.23 0.24 0.25 0.24 0.24 0.25 0.27 0.28 0.28 0.28 0.28 0.30 0.32 0.32 0.34
0.56 0.58 0.59 0.58 0.54 0.46 0.40 0.40 0.38 0.25 0.25 0.27 0.28 0.29 0.29 0.29 0.31 0.31 0.30 0.31 0.35 0.36 0.31 0.26 0.20 0.15 0.14 0.16 0.15 0.16 0.17 0.16 0.16 0.17 0.17 0.19 0.22 0.23 0.24 0.25 0.26 0.25 0.25 0.26 0.27 0.28 0.29 0.31 0.32 0.33 0.34 0.34 0.33 0.34
0.59 0.57 0.56 0.55 0.51 0.39 0.32 0.33 0.39 0.29 0.23 0.26 0.28 0.27 0.27 0.26 0.28 0.28 0.29 0.31 0.30 0.30 0.26 0.22 0.19 0.20 0.18 0.19 0.19 0.18 0.19 0.20 0.19 0.17 0.17 0.19 0.22 0.24 0.24 0.26 0.26 0.27 0.27 0.28 0.28 0.29 0.29 0.30 0.33 0.33 0.34 0.35 0.33 0.32
0.52 0.53 0.54 0.50 0.44 0.39 0.33 0.30 0.28 0.29 0.28 0.26 0.28 0.27 0.25 0.27 0.24 0.23 0.23 0.28 0.25 0.23 0.20 0.22 0.20 0.21 0.22 0.21 0.22 0.22 0.21 0.22 0.21 0.22 0.20 0.19 0.23 0.26 0.26 0.27 0.27 0.28 0.27 0.26 0.25 0.26 0.29 0.30 0.32 0.34 0.35 0.35 0.36 0.36
0.48 0.52 0.47 0.46 0.37 0.35 0.32 0.32 0.27 0.28 0.24 0.24 0.24 0.25 0.22 0.20 0.20 0.21 0.25 0.21 0.20 0.19 0.19 0.17 0.17 0.18 0.18 0.19 0.20 0.22 0.23 0.24 0.24 0.25 0.25 0.26 0.23 0.23 0.23 0.25 0.27 0.25 0.25 0.26 0.27 0.27 0.29 0.32 0.35 0.35 0.34 0.35 0.37 0.37
0.48 0.45 0.40 0.37 0.29 0.27 0.26 0.34 0.25 0.26 0.21 0.21 0.23 0.19 0.18 0.18 0.20 0.25 0.19 0.21 0.20 0.20 0.19 0.20 0.21 0.22 0.22 0.22 0.24 0.24 0.25 0.24 0.23 0.24 0.26 0.25 0.26 0.26 0.25 0.27 0.29 0.27 0.25 0.26 0.31 0.30 0.30 0.34 0.36 0.35 0.35 0.35 0.36 0.35
0.45 0.35 0.29 0.27 0.25 0.21 0.27 0.23 0.26 0.24 0.23 0.20 0.18 0.16 0.17 0.18 0.22 0.19 0.15 0.16 0.16 0.19 0.20 0.20 0.22 0.21 0.22 0.22 0.21 0.22 0.24 0.26 0.25 0.26 0.26 0.26 0.25 0.26 0.29 0.29 0.30 0.30 0.30 0.30 0.30 0.30 0.32 0.33 0.36 0.35 0.34 0.34 0.34 0.33
0.26 0.26 0.25 0.21 0.25 0.22 0.19 0.20 0.21 0.20 0.17 0.18 0.17 0.16 0.16 0.19 0.16 0.15 0.13 0.13 0.15 0.17 0.18 0.19 0.20 0.21 0.21 0.23 0.25 0.26 0.28 0.28 0.26 0.25 0.27 0.29 0.30 0.30 0.29 0.30 0.30 0.30 0.32 0.30 0.30 0.30 0.31 0.34 0.34 0.35 0.33 0.33 0.32 0.32
0.19 0.23 0.20 0.20 0.20 0.19 0.18 0.16 0.16 0.16 0.16 0.16 0.16 0.18 0.18 0.16 0.14 0.11 0.13 0.14 0.16 0.17 0.19 0.19 0.22 0.24 0.25 0.27 0.26 0.26 0.28 0.31 0.30 0.27 0.29 0.33 0.33 0.32 0.29 0.28 0.26 0.27 0.33 0.34 0.32 0.31 0.31 0.33 0.33 0.33 0.33 0.33 0.33 0.33
0.19 0.20 0.24 0.28 0.24 0.22 0.19 0.20 0.20 0.18 0.16 0.16 0.17 0.17 0.16 0.13 0.12 0.14 0.17 0.19 0.20 0.22 0.26 0.30 0.30 0.28 0.27 0.27 0.29 0.30 0.31 0.33 0.32 0.33 0.36 0.36 0.38 0.38 0.36 0.31 0.28 0.31 0.35 0.34 0.33 0.32 0.31 0.32 0.33 0.33 0.34 0.35 0.35 0.35
0.23 0.23 0.19 0.22 0.22 0.23 0.19 0.19 0.19 0.18 0.18 0.20 0.19 0.15 0.14 0.14 0.13 0.17 0.19 0.22 0.24 0.27 0.29 0.30 0.30 0.30 0.30 0.31 0.33 0.34 0.34 0.36 0.38 0.39 0.39 0.39 0.38 0.36 0.37 0.37 0.36 0.35 0.35 0.34 0.33 0.33 0.33 0.33 0.33 0.33 0.33 0.33 0.34 0.36
0.23 0.26 0.25 0.21 0.22 0.23 0.22 0.21 0.20 0.21 0.22 0.21 0.17 0.16 0.17 0.20 0.22 0.22 0.23 0.25 0.28 0.28 0.27 0.27 0.29 0.34 0.35 0.36 0.36 0.35 0.36 0.35 0.32 0.28 0.27 0.27 0.29 0.31 0.35 0.35 0.35 0.35 0.34 0.33 0.33 0.34 0.34 0.34 0.34 0.33 0.34 0.34 0.35 0.36
0.23 0.28 0.24 0.23 0.22 0.20 0.22 0.24 0.21 0.23 0.25 0.25 0.25 0.24 0.23 0.23 0.26 0.30 0.28 0.28 0.27 0.26 0.28 0.30 0.32 0.32 0.31 0.31 0.31 0.33 0.35 0.35 0.34 0.31 0.28 0.27 0.28 0.32 0.32 0.32 0.32 0.33 0.33 0.33 0.32 0.32 0.32 0.32 0.32 0.31 0.30 0.30 0.31 0.32
0.26 0.25 0.22 0.21 0.18 0.20 0.21 0.23 0.24 0.24 0.24 0.23 0.24 0.23 0.22 0.24 0.27 0.29 0.28 0.28 0.29 0.28 0.28 0.28 0.30 0.31 0.31 0.30 0.30 0.30 0.29 0.32 0.33 0.33 0.32 0.31 0.31 0.31 0.31 0.31 0.32 0.32 0.32 0.32 0.31 0.30 0.29 0.28 0.28 0.28 0.27 0.27 0.27 0.28
0.22 0.20 0.18 0.16 0.16 0.18 0.18 0.15 0.14 0.14 0.14 0.14 0.14 0.16 0.18 0.20 0.20 0.24 0.26 0.25 0.25 0.25 0.26 0.27 0.27 0.28 0.30 0.31 0.31 0.31 0.31 0.30 0.30 0.30 0.30 0.30 0.29 0.30 0.29 0.29 0.30 0.30 0.29 0.29 0.28 0.28 0.27 0.26 0.25 0.25 0.25 0.25 0.25 0.24
0.17 0.17 0.16 0.14 0.12 0.10 0.11 0.11 0.11 0.10 0.10 0.10 0.13 0.14 0.15 0.18 0.17 0.20 0.26 0.27 0.25 0.25 0.26 0.27 0.28 0.29 0.29 0.30 0.30 0.29 0.29 0.29 0.29 0.29 0.29 0.29 0.28 0.27 0.27 0.26 0.26 0.26 0.25 0.25 0.25 0.24 0.24 0.23 0.22 0.22 0.22 0.22 0.22 0.21
Wind_Speed
38 44 43 42 41 39 37 36 34 32 30 28 26 24 23 21 20 20 19 18 18 17 18 18 17 17 17 17 18 19 18 20 20 19 20 21 21 21 19 20 18 18 18 19 19 20 24 23 26 27 34 38 39 41
32 40 44 43 41 40 39 36 35 33 32 30 29 27 25 23 22 21 20 20 19 19 19 19 20 21 21 21 21 22 22 21 21 20 22 21 22 21 21 22 19 21 21 22 21 25 30 32 35 38 37 40 39 40
35 36 40 44 44 41 40 38 37 35 33 32 30 29 27 26 24 23 22 22 21 21 22 22 23 25 26 26 26 25 26 26 25 25 24 25 24 22 22 23 23 23 25 26 29 32 35 36 39 41 40 38 38 39
33 37 37 41 42 44 42 40 38 36 35 33 32 31 29 28 26 25 24 24 23 22 23 25 26 27 28 29 29 29 28 26 25 26 26 24 23 23 24 27 27 27 27 28 36 38 40 39 38 39 39 35 37 40
28 32 34 37 39 42 42 41 39 37 36 35 33 32 30 29 28 27 27 27 27 26 25 27 29 28 28 27 27 27 26 28 27 27 25 25 25 26 29 28 27 27 30 32 36 39 40 42 38 36 34 37 42 41
29 29 32 31 34 38 41 40 39 39 37 36 34 33 32 31 29 28 28 31 30 28 28 29 29 26 26 27 28 29 31 29 26 26 27 27 27 26 28 31 33 33 35 35 42 42 40 40 35 35 37 40 39 40
29 29 29 30 32 33 37 38 39 38 36 36 35 34 33 33 31 29 27 26 27 27 26 27 27 23 23 24 25 25 24 25 26 27 28 30 30 31 33 37 35 36 39 40 40 39 38 36 37 39 38 40 41 40
28 29 30 30 30 31 33 33 35 36 36 34 33 33 32 31 30 29 28 26 23 24 25 24 24 22 22 21 20 22 22 24 27 28 28 30 32 32 34 36 35 35 36 38 38 36 35 34 36 37 38 39 40 40
28 29 29 29 29 29 30 32 33 32 33 33 30 28 29 30 29 29 27 27 26 25 24 25 24 25 25 23 22 23 24 25 27 30 31 31 31 31 33 34 37 37 36 35 33 32 32 34 35 36 38 40 41 41
29 28 28 28 28 27 27 29 31 32 30 29 28 27 27 28 25 24 25 26 27 28 29 29 28 27 26 27 26 26 27 28 31 30 29 31 33 34 33 34 34 33 30 29 29 30 32 34 37 39 41 41 42 43
31 28 27 27 27 28 26 25 28 29 29 29 28 28 26 25 26 25 25 25 26 27 28 29 30 28 28 27 27 28 29 28 29 32 30 31 31 31 31 29 29 28 28 28 28 31 35 38 40 41 42 42 43 44
33 30 28 26 26 26 26 25 26 26 27 28 26 26 25 25 25 25 27 27 28 28 28 27 27 28 27 28 27 27 28 28 30 29 29 30 29 29 29 29 29 29 31 33 35 38 39 40 41 43 44 45 46 46
34 31 29 26 25 25 24 24 25 24 23 23 23 24 25 26 26 27 28 28 27 27 26 25 24 25 26 27 26 26 27 29 29 28 29 29 27 28 29 29 31 33 34 36 38 40 42 43 44 45 47 46 45 46
35 33 30 27 25 25 23 23 22 23 22 22 22 22 24 23 26 27 27 26 27 26 25 24 24 24 25 24 25 25 27 26 27 27 28 26 27 29 31 32 34 36 38 40 43 44 45 46 46 46 45 46 45 44
34 33 31 28 26 25 23 24 22 22 21 21 21 22 24 24 24 24 24 24 24 24 23 23 23 24 23 23 24 24 24 25 25 25 26 27 29 31 33 35 37 39 42 43 44 45 45 45 45 45 45 44 42 42
33 31 30 29 27 25 24 23 21 21 21 20 21 21 22 22 23 23 23 23 23 23 23 23 23 22 25 23 23 25 23 26 26 26 27 30 32 34 36 39 41 43 43 44 44 44 44 43 43 43 43 41 40 38
30 26 29 27 26 24 22 21 21 20 20 20 21 22 21 21 21 22 22 22 22 22 22 21 21 23 22 22 24 23 25 26 26 29 31 33 35 38 40 42 42 41 42 42 42 42 42 42 42 41 40 39 36 32
25 26 26 26 24 21 21 20 20 20 20 21 21 21 22 22 21 22 24 24 23 23 23 23 23 23 24 24 26 26 28 31 33 33 35 37 39 39 39 39 39 39 39 39 39 40 41 41 40 39 36 34 32 29
26 26 25 24 22 20 19 20 20 20 22 21 22 21 21 22 23 22 22 22 23 23 23 23 24 25 26 27 29 30 31 32 34 36 37 37 37 37 37 37 37 37 36 37 38 38 38 36 34 30 29 29 27 25
24 24 22 21 21 19 19 20 20 20 20 20 20 20 21 21 22 22 23 23 24 25 27 27 27 27 28 31 31 32 33 34 35 37 37 35 34 35 35 34 34 34 35 35 35 34 33 31 29 29 28 27 24 22
22 22 21 21 19 18 18 18 18 18 18 19 19 20 20 21 22 22 23 24 26 27 28 29 30 32 34 34 33 35 35 34 34 33 34 34 33 31 31 31 32 32 32 32 32 31 29 28 28 28 26 23 22 20
18 19 18 17 16 16 16 17 16 17 17 18 18 18 19 20 21 22 23 24 26 26 28 28 29 31 32 33 34 33 34 33 33 33 32 31 30 29 29 29 29 29 30 29 29 29 27 26 26 25 25 22 19 16
16 15 14 13 13 14 15 16 16 17 16 18 17 18 19 19 19 19 21 22 24 25 27 29 31 33 34 34 34 33 33 32 31 29 28 27 27 27 27 26 26 27 28 29 29 27 26 25 24 24 22 19 15 13
14 12 12 12 12 13 13 14 14 14 15 15 15 16 17 18 19 20 22 23 24 25 27 29 29 29 29 28 27 27 27 26 26 26 25 25 25 25 26 27 28 28 29 29 28 25 24 24 23 22 20 17 15 14
10 11 10 11 12 11 12 12 12 12 14 13 13 16 17 17 19 21 23 24 24 24 25 25 24 23 23 23 23 23 24 24 24 24 23 24 26 28 29 29 29 28 28 27 25 24 23 23 22 20 19 18 17 16
10 11 10 11 10 10 11 10 11 13 12 14 16 16 16 17 18 21 21 22 22 22 22 22 21 20 20 20 21 23 24 24 24 26 27 28 29 29 29 29 28 26 25 26 26 25 25 24 23 21 20 19 19 18
11 10 11 11 10 9 10 11 12 12 14 16 17 17 17 19 21 22 22 21 22 23 21 20 21 22 24 27 28 29 29 28 28 27 27 28 29 29 29 28 26 25 26 26 26 27 27 25 23 22 22 21 20 20
11 11 12 13 13 14 14 15 16 17 18 18 18 20 20 21 23 24 25 26 27 25 24 26 27 28 29 28 27 26 26 26 25 25 26 27 26 25 23 22 23 25 26 25 25 25 24 23 23 23 23 23 23 23
13 13 13 14 15 16 19 20 21 22 23 24 25 27 28 30 31 30 30 29 28 27 26 27 26 26 25 25 24 24 24 24 23 24 24 23 22 21 22 23 23 23 23 23 24 23 23 23 23 24 25 26 26 26
16 17 17 18 19 21 23 23 25 26 27 28 30 32 32 32 31 30 30 29 28 27 26 26 26 25 25 24 24 24 24 24 23 22 22 21 21 22 22 22 23 23 23 23 23 23 23 22 22 22 21 21 21 20
15 17 18 20 22 24 25 27 29 30 30 31 31 31 32 30 27 27 26 26 25 24 24 24 23 22 22 22 22 22 22 22 22 22 22 22 22 21 22 23 23 24 24 25 24 24 23 23 22 22 22 21 20 19
17 19 19 21 23 23 23 25 26 28 30 31 33 31 30 27 26 24 23 23 22 21 21 22 22 22 22 21 20 20 20 19 19 20 20 20 21 22 23 24 25 25 25 25 24 24 24 24 24 24 24 23 22 21
15 16 18 19 19 19 21 22 24 25 26 28 29 28 27 25 22 21 20 19 19 20 20 21 20 20 19 17 17 17 18 19 19 20 21 21 22 23 24 24 25 25 25 25 25 25 25 24 24 23 23 22 21 21
Wind_Direction
214 212 211 212 213 214 215 216 217 219 220 221 223 225 227 230 233 234 237 242 244 248 253 252 256 259 265 270 273 276 285 287 288 290 292 291 293 290 292 285 286 286 290 288 293 289 298 302 301 302 300 304 305 307
213 211 211 212 214 215 216 217 218 219 221 223 224 227 229 232 235 238 240 245 248 250 255 256 259 264 266 268 273 273 277 282 281 289 288 293 291 291 289 288 287 284 282 288 282 287 299 298 298 302 302 304 306 307
214 212 212 215 216 217 217 218 219 221 222 224 226 228 231 234 237 240 243 246 251 255 261 261 263 268 269 270 270 273 277 277 281 282 285 287 284 287 287 288 289 290 293 288 293 294 296 299 299 300 303 302 306 308
214 215 216 216 217 218 217 218 219 221 223 226 228 230 232 235 238 241 245 248 252 257 261 266 271 272 273 271 269 268 271 275 279 281 282 283 283 281 285 287 283 291 296 290 291 296 299 299 300 302 303 302 307 309
212 210 214 215 216 214 215 218 220 222 224 226 228 230 232 235 239 245 249 251 254 258 265 270 276 277 272 269 266 265 266 275 276 277 278 279 281 285 287 288 286 292 291 291 293 298 298 302 305 302 302 303 307 306
212 212 213 213 213 214 216 219 221 223 225 227 230 231 233 236 240 247 254 253 254 259 269 275 276 273 269 268 267 269 272 273 270 272 276 280 283 281 285 287 290 291 290 289 294 297 300 302 303 303 304 305 304 303
213 212 211 210 211 213 217 220 221 222 225 228 231 232 235 238 242 246 251 255 253 255 265 275 276 273 271 271 270 269 271 269 271 274 275 279 280 280 285 286 294 293 292 295 296 298 299 300 298 300 300 303 305 305
211 210 210 211 213 215 216 217 216 222 224 227 229 231 234 234 241 246 248 252 248 256 264 268 270 273 275 275 273 273 272 274 274 275 280 284 287 284 284 290 292 293 295 296 296 296 296 296 298 301 304 305 305 306
210 209 210 212 213 214 217 217 217 222 221 224 226 226 230 238 242 246 245 247 249 256 259 262 264 273 274 275 277 279 276 276 278 279 282 285 285 284 290 292 293 294 294 295 295 296 297 299 303 304 306 307 307 307
209 209 211 211 212 213 215 217 218 216 217 217 224 228 237 240 237 236 245 252 256 256 258 263 264 268 273 276 279 280 281 280 282 282 285 284 286 288 293 295 295 297 297 296 297 299 302 302 304 305 306 307 306 307
208 209 209 209 210 210 212 213 211 211 217 226 229 232 234 235 240 246 249 249 254 258 260 262 264 270 272 273 274 276 279 280 281 284 285 288 289 293 296 298 300 300 300 301 301 302 302 302 303 304 306 306 306 307
205 207 206 208 208 208 211 211 212 220 225 227 227 228 234 241 244 246 249 254 256 259 262 266 266 265 270 271 273 275 277 279 279 285 285 287 288 293 296 297 297 298 299 298 300 301 302 303 303 304 305 306 306 307
203 205 206 206 207 208 212 214 214 212 216 224 232 236 239 244 244 247 250 256 258 261 262 264 266 268 270 273 274 275 276 276 282 282 283 285 289 292 294 295 296 298 300 302 303 303 303 302 302 303 304 305 305 306
203 203 204 206 207 208 211 209 215 220 226 233 235 237 240 244 249 251 254 256 258 261 262 263 267 270 272 274 274 277 279 281 281 282 283 285 287 290 294 296 298 300 301 301 302 303 303 303 303 303 304 305 305 304
204 205 205 206 208 210 213 216 222 226 231 237 239 241 245 250 253 255 256 257 260 258 261 266 268 269 272 274 276 279 281 280 281 284 284 285 289 292 295 298 299 300 301 302 303 303 304 304 304 304 305 306 305 306
200 203 209 208 210 213 215 219 226 230 236 241 244 248 251 250 254 255 256 257 259 259 263 266 268 272 270 272 277 274 276 278 284 282 286 289 292 294 297 298 299 300 301 302 303 304 305 305 306 306 307 307 306 306
197 207 204 206 209 211 217 223 230 235 238 244 248 248 248 253 253 254 256 258 257 260 262 265 267 264 273 276 277 275 278 282 281 287 291 292 293 295 297 298 300 300 302 303 304 305 305 306 307 307 307 307 308 305
203 198 198 200 204 214 224 229 231 237 242 246 248 250 250 253 254 257 257 258 258 259 260 263 267 268 269 272 279 280 280 284 287 289 291 293 295 296 298 299 301 302 303 304 306 307 308 308 308 307 307 308 307 305
195 195 199 203 210 218 228 234 237 242 245 247 248 250 252 255 256 258 257 259 258 259 261 265 268 270 273 275 278 282 284 287 289 292 293 295 295 297 298 300 301 302 304 306 308 309 311 311 311 310 311 313 310 308
194 196 201 210 219 230 234 241 241 243 246 247 250 252 253 256 257 259 259 260 260 261 263 266 269 272 275 279 281 283 285 288 291 293 294 295 296 297 299 300 301 303 305 307 309 310 311 312 312 312 311 310 310 307
200 210 216 222 228 232 235 238 241 242 244 247 253 253 257 261 261 261 262 261 263 266 269 270 273 276 277 280 282 285 287 288 289 290 293 295 297 298 299 301 303 305 308 309 309 312 310 312 314 314 313 308 308 305
206 205 210 217 225 231 234 237 239 242 248 252 256 257 260 262 262 263 264 265 269 270 271 275 276 278 280 282 284 284 286 287 288 289 291 293 295 298 300 303 305 308 311 311 310 312 311 312 315 316 316 308 306 305
187 196 206 218 227 235 242 240 245 249 251 256 259 261 263 265 266 268 270 272 275 277 276 277 278 280 281 283 284 285 284 284 286 287 289 291 295 298 300 302 305 308 311 314 313 309 308 309 311 317 319 316 305 297
194 207 218 227 233 239 244 242 247 250 253 254 257 264 266 266 270 272 274 278 284 285 282 281 282 283 284 284 285 286 286 285 285 286 287 290 294 299 301 302 302 303 307 312 313 309 309 311 309 309 309 311 307 300
209 223 229 234 235 235 236 244 247 247 252 254 260 268 270 272 274 277 280 287 290 287 285 284 283 282 283 286 288 289 289 287 285 285 287 289 293 298 301 301 303 302 304 308 309 311 308 309 308 306 305 304 302 297
223 230 226 225 227 227 229 232 242 247 255 261 264 272 279 280 282 282 287 292 289 289 288 283 281 282 284 284 288 291 293 293 288 286 288 289 293 296 299 300 300 301 302 305 305 305 306 304 302 301 300 298 296 294
232 233 231 232 230 236 247 252 259 263 264 266 273 276 279 279 282 289 293 291 291 291 288 281 281 281 283 287 289 290 292 290 286 288 290 291 293 295 296 297 297 298 302 304 304 304 303 300 297 296 296 293 293 291
238 237 236 239 246 252 254 262 265 268 273 273 277 273 273 276 284 290 289 290 288 286 282 282 283 285 286 287 288 291 294 295 290 290 291 294 295 297 298 297 299 301 303 304 305 306 304 301 297 295 293 292 289 289
247 250 248 252 258 261 263 266 271 274 277 276 275 278 279 282 286 286 287 286 286 284 284 285 286 287 286 285 287 289 291 293 292 293 294 294 296 296 299 301 302 304 306 307 307 308 307 305 303 300 295 292 291 288
256 252 259 264 265 269 274 274 278 280 279 279 281 283 284 285 285 285 284 284 281 281 281 283 284 284 284 285 288 289 290 291 291 292 292 292 293 297 299 301 303 304 306 306 307 307 308 307 307 308 309 307 303 298
267 268 270 271 273 278 280 282 283 284 283 282 282 281 283 284 283 284 285 284 281 280 280 283 283 286 287 289 289 290 290 291 290 291 292 293 294 295 298 300 302 304 304 304 305 304 305 306 306 306 306 306 305 302
271 269 274 279 283 286 289 288 288 288 288 287 283 281 280 278 276 279 285 283 280 280 281 282 282 283 287 288 288 291 293 293 293 293 294 294 296 298 299 301 302 303 303 304 304 304 304 304 304 304 302 302 301 300
279 282 284 288 291 295 296 300 300 300 301 298 292 280 270 266 266 272 277 281 280 281 282 284 284 285 286 285 287 291 295 296 297 297 297 297 298 300 301 302 303 304 304 304 303 303 303 303 303 304 303 302 301 300